Home > Weather > Glendale > Past weeks

Flag for USA Past Weather in Glendale, Arizona, USA — Yesterday and Last 2 Weeks

Now
103 °F

Clear.


Feels Like: 101 °F
Forecast: 90 / 107 °F
Wind: 8 mph from Southwest

Location: Phoenix-Deer Valley Municipal Airport

Current Time: Jul 23, 2016 at 9:56:19 PM

Latest Report: Jul 23, 2016 at 8:53 PM


Visibility: 10 mi

Pressure: 29.65 "Hg

Humidity: 20%

Dew Point: 54 °F

Location of GlendaleLocation

Past Weather in Glendale — Graph

°F

Glendale Temperature Yesterday

Maximum temperature yesterday: 110 °F (at 3:53 PM)
Minimum temperature yesterday: 90 °F (at 6:53 AM)
Average temperature yesterday: 99 °F

High & Low Weather Summary for the Past Weeks

 TemperatureHumidityPressure
High110 °F (Jul 22, 3:53 PM)62% (Jul 18, 5:53 AM)29.95 "Hg (Jul 18, 5:53 AM)
Low74 °F (Jul 12, 3:53 AM)6% (Jul 10, 5:53 PM)29.60 "Hg (Jul 10, 7:53 PM)
Average96 °F21%29.79 "Hg
* Reported Jul 8 8:53 PM — Jul 23 8:53 PM, Glendale, Weather by CustomWeather, © 2016

Note: Actual official high and low records may vary slightly from our data, if they occured in-between our weather recording intervals... More about our weather records

Advertising

Glendale Weather History for the Previous 24 Hours

Scroll right to see more
 ConditionsComfort  
Time TempWeatherWind HumidityBarometerVisibility
8:53 PM
Sat, Jul 23
103 °FClear.8 mph20%29.65 "Hg10 mi
7:53 PM105 °FClear.13 mph16%29.64 "Hg10 mi
6:53 PM108 °FSunny.15 mph16%29.63 "Hg10 mi
5:53 PM108 °FSunny.15 mph16%29.62 "Hg10 mi
4:53 PM109 °FSunny.14 mph16%29.64 "Hg10 mi
3:53 PM109 °FSunny.10 mph16%29.67 "Hg10 mi
2:53 PM107 °FSunny.10 mph18%29.70 "Hg10 mi
1:53 PM105 °FSunny.7 mph20%29.74 "Hg4 mi
12:53 PM104 °FSunny.8 mph21%29.77 "Hg10 mi
11:53 AM101 °FSunny.N/A22%29.79 "Hg10 mi
10:53 AM102 °FSunny.10 mph22%29.80 "Hg10 mi
9:53 AM99 °FSunny.8 mph23%29.82 "Hg10 mi
8:53 AM96 °FSunny.10 mph25%29.83 "Hg10 mi
7:53 AM93 °FSunny.6 mph27%29.83 "Hg10 mi
6:53 AM90 °FSunny.5 mph28%29.80 "Hg10 mi
5:53 AM88 °FSunny.6 mph28%29.76 "Hg10 mi
4:53 AM88 °FClear.5 mph28%29.74 "Hg10 mi
3:53 AM88 °FClear.6 mph31%29.73 "Hg10 mi
2:53 AM89 °FClear.No wind26%29.73 "Hg10 mi
1:53 AM90 °FClear.No wind25%29.74 "Hg10 mi
12:53 AM93 °FClear.No wind23%29.75 "Hg10 mi
11:53 PM
Fri, Jul 22
93 °FClear.3 mph23%29.76 "Hg10 mi
10:53 PM96 °FClear.3 mph20%29.74 "Hg10 mi
9:53 PM98 °FClear.15 mph20%29.74 "Hg10 mi
Weather by CustomWeather, © 2016

See weather overviewHow to use our weather pages